Location: Darr Branch
(32.1532°N, 97.3853°W)
Time: 11:11:02
(UTC+00:00)

Meteor 2-17 Rocket - Pass Details

Date: 18 November 2025
Orbit: 936 x 955 km, 82.5° (Epoch: 07 December)

Event Time Altitude Azimuth Distance (km) Brightness Sun altitude
Rises 11:58:15 0° 193° (SSW) 3,581 7.5 -13.5°
Reaches altitude 10° 12:00:44 10° 196° (SSW) 2,642 6.8 -13.0°
Maximum altitude 12:06:43 65° 278° (W) 1,030 4.4 -11.8°
Drops below altitude 10° 12:12:46 10° 360° (N) 2,668 6.6 -10.6°
Sets 12:15:18 0° 3° (N) 3,619 7.3 -10.1°
